This demonstration page uses our WeatherBlox Daily Observations layout. Learn more.

Left ArrowRight Arrow

41.55636, -103.73856

Hourly Observations for June 21, 2015

Temp ( °F °C ) Dew Point ( °F °C ) Humidity (%) Winds ( mph kmh ) Pressure ( in mb ) Visibility ( mi km ) Precip ( " mm )
12:53 am 00:53 Clear 67 19.4 60 15.6 79 79 SE 16 26 29.81 1010 10 16.0934 0 0
1:53 am 01:53 Clear 66 18.9 60 15.6 81 81 ESE 13 20 29.78 1009 10 16.0934 0 0
2:53 am 02:53 Clear 64 17.8 60 15.6 87 87 ESE 5 7 29.78 1008 10 16.0934 0 0
3:53 am 03:53 Clear 66 18.9 60 15.6 81 81 ESE 3 6 29.78 1009 10 16.0934 0 0
4:53 am 04:53 Clear 64 17.8 60 15.6 87 87 NE 9 15 29.81 1009 10 16.0934 0 0
5:53 am 05:53 Sunny 64 17.8 61 16.1 90 90 E 12 19 29.84 1010 10 16.0934 0 0
6:53 am 06:53 Sunny 67 19.4 63 17.2 87 87 E 18 30 29.86 1011 10 16.0934 0 0
7:16 am 07:16 Mostly Cloudy 67 19.4 62 16.7 84 84 E 16 26 29.85 1011 10 16.0934 0 0
7:53 am 07:53 Cloudy 66 18.9 58 14.4 75 75 ESE 24 39 29.89 1012 10 16.0934 0 0
8:53 am 08:53 Cloudy 67 19.4 59 15 76 76 SE 22 35 29.91 1013 10 16.0934 0 0
9:27 am 09:27 Partly Cloudy 69 20.6 61 16.1 76 76 SE 20 31 29.83 1010 10 16.0934 0 0
9:41 am 09:41 Mostly Cloudy 69 20.6 61 16.1 76 76 SE 20 31 29.83 1010 10 16.0934 0 0
9:53 am 09:53 Mostly Cloudy 71 21.7 62 16.7 73 73 SE 17 28 29.88 1012 10 16.0934 0 0
10:13 am 10:13 Cloudy 71 21.7 62 16.7 73 73 SE 17 28 29.83 1010 10 16.0934 0 0
10:53 am 10:53 Cloudy 73 22.8 63 17.2 71 71 SE 13 20 29.87 1012 10 16.0934 0 0
11:53 am 11:53 Partly Cloudy 76 24.4 64 17.8 67 67 S 13 20 29.85 1011 10 16.0934 0 0
12:53 pm 12:53 Sunny 80 26.7 63 17.2 56 56 SSE 13 20 29.82 1010 10 16.0934 0 0
1:53 pm 13:53 Sunny 83 28.3 63 17.2 51 51 SSE 10 17 29.78 1009 10 16.0934 0 0
2:53 pm 14:53 Sunny 85 29.4 62 16.7 46 46 SSE 9 15 29.75 1007 10 16.0934 0 0
3:53 pm 15:53 Sunny 88 31.1 61 16.1 40 40 SSE 14 22 29.71 1006 10 16.0934 0 0
4:53 pm 16:53 Sunny 89 31.7 60 15.6 38 38 SSE 12 19 29.69 1005 10 16.0934 0 0
5:53 pm 17:53 Sunny 88 31.1 63 17.2 43 43 SSE 12 19 29.67 1005 10 16.0934 0 0
6:53 pm 18:53 Sunny 86 30 63 17.2 46 46 SE 13 20 29.65 1004 10 16.0934 0 0
7:53 pm 19:53 Sunny 83 28.3 64 17.8 53 53 SE 9 15 29.64 1004 10 16.0934 0 0
8:53 pm 20:53 Clear 79 26.1 66 18.9 65 65 ESE 8 13 29.64 1004 10 16.0934 0 0
9:53 pm 21:53 Clear 77 25 65 18.3 66 66 E 8 13 29.63 1004 10 16.0934 0 0
10:53 pm 22:53 Clear 80 26.7 63 17.2 56 56 S 9 15 29.61 1003 10 16.0934 0 0
11:53 pm 23:53 Clear 77 25 61 16.1 58 58 SSW 8 13 29.62 1003 10 16.0934 0 0

Powered by AerisWeather